Cape Girardeau, MO

4:07 AM CST on December 15, 2019 (GMT -0600)
Cape Girardeau Regional

Weather History for KCGI - October, 2019

Change the Weather History Date:

Tuesday, October 8, 2019

  Actual Average Record
Temperature  
Mean Temperature 59 °F 60 °F  
Max Temperature 74 °F 73 °F 89 °F (2007)
Min Temperature 43 °F 47 °F 29 °F (2000)
Degree Days  
Heating Degree Days 6 6  
Month to date heating degree days 12 44  
Since 1 July heating degree days 12 93  
Cooling Degree Days 0 1  
Month to date cooling degree days 44 15  
Year to date cooling degree days 1768 1437  
Growing Degree Days 8 (Base 50)    
Moisture  
Dew Point 46 °F    
Average Humidity 68    
Maximum Humidity 100    
Minimum Humidity 35    
Precipitation  
Precipitation 0.00 in 0.12 in 1.86 in (1999)
Month to date precipitation 1.18 0.93  
Year to date precipitation 48.85 35.26  
Sea Level Pressure  
Sea Level Pressure 30.17 in    
Wind  
Wind Speed 4 mph (ENE)    
Max Wind Speed 14 mph    
Max Gust Speed 19 mph    
Visibility 6 miles    
Events Fog    
T = Trace of Precipitation, MM = Missing Value Source: NWS Daily Summary

Daily Weather History Graph

Daily Weather History Graph

Search for Another Location

Airport or City:

Astronomy

Oct. 08, 2019 Rise Set
Actual Time 6:59 AM CDT 6:31 PM CDT
Civil Twilight 6:33 AM CDT 6:57 PM CDT
Nautical Twilight 6:03 AM CDT 7:27 PM CDT
Astronomical Twilight 5:33 AM CDT 7:57 PM CDT
Moon 4:22 PM CDT (10/8) 1:57 AM CDT (10/8)
Length of Visible Light 12h 23m
Length of Day
11h 31m
Waxing Gibbous, 78% of the Moon is Illuminated
Oct 8
Waxing Gibbous
Oct 13
Full
Oct 21
Last Quarter
Oct 27
New
Nov 4
First Quarter

Hourly Weather History & Observations

Time (CDT) Temp. Windchill Dew Point Humidity Pressure Visibility Wind Dir Wind Speed Gust Speed Precip Events Conditions
12:53 AM 48.0 °F - 46.0 °F 93% 30.18 in 10.0 mi Calm Calm - N/A   Clear
1:21 AM 46.9 °F - 46.0 °F 97% 30.18 in 5.0 mi Calm Calm - N/A   Clear
1:31 AM 46.9 °F - 45.0 °F 93% 30.18 in 1.5 mi Calm Calm - N/A   Clear
1:38 AM 46.9 °F - 45.0 °F 93% 30.18 in 0.2 mi Calm Calm - N/A Fog Fog
1:53 AM 48.0 °F - 46.0 °F 93% 30.18 in 0.2 mi Calm Calm - N/A Fog Fog
1:59 AM 46.9 °F - 46.0 °F 97% 30.18 in 0.5 mi Calm Calm - N/A Fog Fog
2:53 AM 45.0 °F 43.5 °F 44.1 °F 97% 30.18 in 1.8 mi WSW 3.5 mph - N/A   Clear
2:58 AM 46.0 °F 44.8 °F 44.1 °F 93% 30.18 in 3.0 mi West 3.5 mph - N/A   Clear
3:18 AM 46.0 °F - 44.1 °F 93% 30.18 in 7.0 mi Calm Calm - N/A   Scattered Clouds
4:53 AM 45.0 °F - 43.0 °F 93% 30.18 in 10.0 mi Calm Calm - N/A   Clear
5:53 AM 43.0 °F 41.3 °F 42.1 °F 97% 30.19 in 10.0 mi West 3.5 mph - N/A   Partly Cloudy
6:12 AM 44.1 °F - 42.1 °F 93% 30.19 in 1.8 mi Calm Calm - N/A   Partly Cloudy
6:16 AM 44.1 °F - 42.1 °F 93% 30.19 in 0.8 mi Calm Calm - N/A   Mist
6:25 AM 44.1 °F - 42.1 °F 93% 30.19 in 1.2 mi Calm Calm - N/A   Partly Cloudy
6:38 AM 44.1 °F 42.5 °F 42.1 °F 93% 30.19 in 4.0 mi SW 3.5 mph - N/A   Clear
6:50 AM 44.6 °F 43.1 °F 42.8 °F 93% 30.20 in 10.0 mi South 3.5 mph - N/A   Scattered Clouds
6:53 AM 45.0 °F 42.6 °F 43.0 °F 93% 30.20 in 10.0 mi SSE 4.6 mph - N/A   Mostly Cloudy
7:00 AM 46.0 °F 44.8 °F 44.1 °F 93% 30.19 in 0.8 mi SE 3.5 mph - N/A   Mostly Cloudy
7:08 AM 46.9 °F - 46.0 °F 97% 30.20 in 0.2 mi Calm Calm - N/A Fog Fog
7:48 AM 48.2 °F - 48.2 °F 100% 30.20 in 0.2 mi Calm Calm - N/A Fog Fog
7:53 AM 48.9 °F - 48.0 °F 97% 30.20 in 0.2 mi Calm Calm - N/A Fog Fog
8:08 AM 50.0 °F - 48.0 °F 93% 30.21 in 0.2 mi Calm Calm - N/A Fog Fog
8:33 AM 52.0 °F - 51.1 °F 97% 30.21 in 1.0 mi North 3.5 mph - N/A   Mist
8:37 AM 53.1 °F - 52.0 °F 96% 30.21 in 4.0 mi NNE 3.5 mph - N/A   Mostly Cloudy
8:48 AM 53.6 °F - 51.8 °F 94% 30.21 in 10.0 mi Calm Calm - N/A   Scattered Clouds
8:53 AM 54.0 °F - 52.0 °F 93% 30.21 in 10.0 mi North 3.5 mph - N/A   Partly Cloudy
9:53 AM 62.1 °F - 54.0 °F 75% 30.21 in 10.0 mi Calm Calm - N/A   Clear
10:53 AM 66.9 °F - 48.9 °F 52% 30.21 in 10.0 mi ENE 8.1 mph - N/A   Clear
11:53 AM 70.0 °F - 48.0 °F 46% 30.19 in 10.0 mi ENE 8.1 mph - N/A   Clear
12:53 PM 72.0 °F - 44.1 °F 37% 30.17 in 10.0 mi East 9.2 mph - N/A   Clear
1:53 PM 73.0 °F - 46.0 °F 38% 30.13 in 10.0 mi NE 10.4 mph - N/A   Clear
3:53 PM 73.9 °F - 45.0 °F 35% 30.10 in 10.0 mi NE 4.6 mph - N/A   Clear
4:53 PM 73.9 °F - 46.9 °F 38% 30.09 in 10.0 mi NNE 8.1 mph - N/A   Clear
5:53 PM 70.0 °F - 46.9 °F 44% 30.09 in 10.0 mi NNE 5.8 mph - N/A   Clear
6:53 PM 62.1 °F - 48.9 °F 62% 30.09 in 10.0 mi NE 3.5 mph - N/A   Clear
7:53 PM 57.0 °F - 51.1 °F 81% 30.09 in 10.0 mi Calm Calm - N/A   Clear
8:53 PM 53.1 °F - 50.0 °F 89% 30.10 in 10.0 mi Calm Calm - N/A   Clear
9:53 PM 52.0 °F - 50.0 °F 93% 30.10 in 10.0 mi ESE 3.5 mph - N/A   Clear
10:53 PM 50.0 °F - 46.9 °F 89% 30.10 in 10.0 mi SE 3.5 mph - N/A   Clear
11:44 PM 48.0 °F - 46.0 °F 93% 30.10 in 1.5 mi Calm Calm - N/A   Clear
11:53 PM 48.9 °F - 46.9 °F 93% 30.09 in 1.2 mi Calm Calm - N/A   Clear